Miscellaneous Local Product
Issued by NWS Hastings, NE

Home | Current Version | Previous Version | Graphics & Text | Print | Product List | Glossary On
Versions: 1 2 3 4 5 6 7 8 9 10 11 12 13 14 15 16 17 18 19 20 21 22 23 24 25 26 27 28 29 30 31 32 33 34 35 36 37 38 39 40 41 42 43 44 45 46 47 48 49 50
000
AXUS43 KGID 200602
MISGRI

GID CWA HOURLY WEATHER ROUNDUP
NATIONAL WEATHER SERVICE HASTINGS NE
100 AM CDT WED AUG 20 2014

NOTE: "FAIR" INDICATES FEW OR NO CLOUDS BELOW 12,000 FEET WITH NO
SIGNIFICANT WEATHER AND/OR OBSTRUCTIONS TO VISIBILITY.

...SOUTH CENTRAL NEBRASKA...

CITY           SKY/WX    TMP DP  RH WIND       PRES   REMARKS
GRAND ISLAND   FAIR      76  68  76 SE8       29.80R
HASTINGS       FAIR      76  64  66 SE8       29.80R
KEARNEY        FAIR      72  66  83 E6        29.80S
ORD            CLOUDY    72  68  87 SE6       29.79R
AURORA         FAIR      73  71  96 SE5       29.79S
LEXINGTON      CLOUDY    73  67  83 SW3       29.82R
HOLDREGE       FAIR      75  64  70 CALM      29.79S
HEBRON         FAIR      75  65  70 S6        29.79S

...NEBRASKA PANHANDLE...

CITY           SKY/WX    TMP DP  RH WIND       PRES   REMARKS
CHADRON        CLOUDY    76  50  40 S10       29.79R
ALLIANCE       CLOUDY    68  56  65 S6        29.83F
SCOTTSBLUFF    MOCLDY    67  58  72 E7        29.84S
SIDNEY         PTCLDY    62  58  86 S5        29.86F

...WESTERN AND NORTH CENTRAL NEBRASKA...

CITY           SKY/WX    TMP DP  RH WIND       PRES   REMARKS
VALENTINE      CLOUDY    75  68  78 SE5       29.79S
AINSWORTH      CLOUDY    73  67  83 SE8       29.80F
ONEILL         CLOUDY    73  68  83 SE8       29.81S
BROKEN BOW     CLOUDY    73  70  90 S5        29.81R
IMPERIAL       CLOUDY    67  62  84 SE7       29.80F
NORTH PLATTE   LGT RAIN  69  64  84 NE9       29.81F
MCCOOK         CLOUDY    73  64  73 N5        29.81S

...EASTERN NEBRASKA...

CITY           SKY/WX    TMP DP  RH WIND       PRES   REMARKS
NORFOLK        FAIR      72  65  78 SE8       29.80F
SO SIOUX CITY  FAIR      69  65  86 SE5       29.81R
TEKAMAH        FAIR      69  65  86 CALM      29.81R
COLUMBUS       FAIR      70  66  88 E7        29.80F
ALBION         FAIR      72  64  76 SE6       29.80F
OMAHA EPPLEY   MOCLDY    76  64  66 SE7       29.81R
OFFUTT AFB     FAIR      70  70 100 E3        29.81R
MILLARD        FAIR      76  69  78 CALM      29.81R
LINCOLN        FAIR      79  71  76 SE6       29.80S
NEBRASKA CITY  FAIR      74  69  84 SE7       29.81S
BEATRICE       FAIR      76  72  87 SE7       29.80S
FALLS CITY     FAIR      75  72  90 SE6       29.80R

...NORTHERN KANSAS...

CITY           SKY/WX    TMP DP  RH WIND       PRES   REMARKS
GOODLAND       CLOUDY    74  54  49 S9        29.86S
HILL CITY      FAIR      78  62  57 SW9       29.79S
NORTON         CLEAR     75  61  60 S6        29.79R
PHILLIPSBURG   CLEAR     75  63  64 SE6       29.78F HAZE
SMITH CENTER   CLEAR     75  63  64 SE10      29.79S
BELOIT         CLEAR     79  64  61 SE7       29.78S
HAYS           FAIR      81  61  50 S18       29.81S
RUSSELL        FAIR      78  62  57 S15       29.80S
CONCORDIA      FAIR      80  67  64 S15       29.79S
SALINA         FAIR      81  68  64 S13       29.81S
TOPEKA         FAIR      80  68  66 S6        29.82R



USA.gov is the U.S. government's official web portal to all federal, state and local government web resources and services.